TA3ONK-13 Weather Reports


Display with metric or nautical units.
time (UTC)temp
F
wind
direction
speed
MPH
gust
MPH
rain 1hr
in
rain 24hr
in
rain mn
in
humidity
%
barometer
mb
20260506161303 85 0 0.0 0.0 0.00 0.00 0.00 32 1016.1
20260506155804 82 0 0.0 0.0 0.00 0.00 0.00 35 1016.0
20260506154304 83 0 0.0 0.0 0.00 0.00 0.00 33 1016.0
20260506152805 87 0 0.0 0.0 0.00 0.00 0.00 30 1016.0
20260506151305 88 0 0.0 0.0 0.00 0.00 0.00 30 1016.2
20260506145804 89 0 0.0 0.0 0.00 0.00 0.00 29 1016.3
20260506144304 87 0 0.0 0.0 0.00 0.00 0.00 31 1016.3
20260506142804 90 0 0.0 0.0 0.00 0.00 0.00 27 1016.3
20260506141304 86 0 0.0 0.0 0.00 0.00 0.00 29 1016.4
20260506135802 89 0 0.0 0.0 0.00 0.00 0.00 28 1016.4
20260506134303 85 0 0.0 0.0 0.00 0.00 0.00 30 1016.4
20260506132804 84 0 0.0 0.0 0.00 0.00 0.00 29 1016.4
20260506131303 88 0 0.0 0.0 0.00 0.00 0.00 30 1016.4
20260506125804 92 0 0.0 0.0 0.00 0.00 0.00 27 1016.5
20260506124305 90 0 0.0 0.0 0.00 0.00 0.00 28 1016.6
20260506122805 91 0 0.0 0.0 0.00 0.00 0.00 28 1016.7
20260506121304 86 0 0.0 0.0 0.00 0.00 0.00 30 1016.8
20260506115804 89 0 0.0 0.0 0.00 0.00 0.00 28 1016.8
20260506114304 85 0 0.0 0.0 0.00 0.00 0.00 29 1016.9
20260506112805 87 0 0.0 0.0 0.00 0.00 0.00 29 1017.1
20260506111304 85 0 0.0 0.0 0.00 0.00 0.00 30 1017.0
20260506105804 85 0 0.0 0.0 0.00 0.00 0.00 30 1017.1
20260506104305 84 0 0.0 0.0 0.00 0.00 0.00 34 1017.1
20260506102804 84 0 0.0 0.0 0.00 0.00 0.00 32 1017.1
20260506101305 84 0 0.0 0.0 0.00 0.00 0.00 33 1017.1
20260506095803 85 0 0.0 0.0 0.00 0.00 0.00 32 1017.2
20260506094303 84 0 0.0 0.0 0.00 0.00 0.00 32 1017.2
20260506092804 85 0 0.0 0.0 0.00 0.00 0.00 30 1017.2
20260506091304 84 0 0.0 0.0 0.00 0.00 0.00 30 1017.3
20260506085804 83 0 0.0 0.0 0.00 0.00 0.00 31 1017.4
20260506084305 86 0 0.0 0.0 0.00 0.00 0.00 28 1017.4
20260506082804 87 0 0.0 0.0 0.00 0.00 0.00 28 1017.3
20260506081303 87 0 0.0 0.0 0.00 0.00 0.00 28 1017.2
20260506072804 88 0 0.0 0.0 0.00 0.00 0.00 29 1017.2
20260506071304 84 0 0.0 0.0 0.00 0.00 0.00 32 1017.1
20260506061304 73 0 0.0 0.0 0.00 0.00 0.00 39 1017.2
20260506051304 76 0 0.0 0.0 0.00 0.00 0.00 35 1017.2
20260506044305 75 0 0.0 0.0 0.00 0.00 0.00 35 1017.0
20260506042806 76 0 0.0 0.0 0.00 0.00 0.00 34 1017.0
20260506041305 77 0 0.0 0.0 0.00 0.00 0.00 34 1017.1
20260506035805 75 0 0.0 0.0 0.00 0.00 0.00 35 1016.9
20260506034304 74 0 0.0 0.0 0.00 0.00 0.00 35 1016.8
20260506032805 77 0 0.0 0.0 0.00 0.00 0.00 34 1016.7
20260506031304 77 0 0.0 0.0 0.00 0.00 0.00 34 1016.6
20260506025804 77 0 0.0 0.0 0.00 0.00 0.00 34 1016.6
20260506024304 75 0 0.0 0.0 0.00 0.00 0.00 35 1016.6
20260506022805 76 0 0.0 0.0 0.00 0.00 0.00 36 1016.6
20260506021304 77 0 0.0 0.0 0.00 0.00 0.00 34 1016.4
20260506015805 81 0 0.0 0.0 0.00 0.00 0.00 31 1016.5
20260506014303 80 0 0.0 0.0 0.00 0.00 0.00 32 1016.6
20260506012804 79 0 0.0 0.0 0.00 0.00 0.00 33 1016.6
20260506011305 77 0 0.0 0.0 0.00 0.00 0.00 35 1016.4
20260506005804 79 0 0.0 0.0 0.00 0.00 0.00 34 1016.5
20260506004305 78 0 0.0 0.0 0.00 0.00 0.00 35 1016.4
20260506002804 80 0 0.0 0.0 0.00 0.00 0.00 33 1016.3
20260506001305 79 0 0.0 0.0 0.00 0.00 0.00 33 1016.5
20260505235805 80 0 0.0 0.0 0.00 0.00 0.00 32 1016.5
20260505234303 80 0 0.0 0.0 0.00 0.00 0.00 32 1016.4
20260505232805 76 0 0.0 0.0 0.00 0.00 0.00 34 1016.2
20260505231307 79 0 0.0 0.0 0.00 0.00 0.00 33 1016.2
20260505225804 82 0 0.0 0.0 0.00 0.00 0.00 30 1016.3
20260505224304 78 0 0.0 0.0 0.00 0.00 0.00 32 1016.5
20260505222804 81 0 0.0 0.0 0.00 0.00 0.00 31 1016.6
20260505221303 81 0 0.0 0.0 0.00 0.00 0.00 32 1016.6
20260505215803 82 0 0.0 0.0 0.00 0.00 0.00 32 1016.7
20260505214303 83 0 0.0 0.0 0.00 0.00 0.00 32 1016.7
20260505212805 83 0 0.0 0.0 0.00 0.00 0.00 31 1016.7
20260505211304 83 0 0.0 0.0 0.00 0.00 0.00 32 1016.8
20260505205804 85 0 0.0 0.0 0.00 0.00 0.00 32 1016.7
20260505204304 83 0 0.0 0.0 0.00 0.00 0.00 33 1016.7
20260505202804 84 0 0.0 0.0 0.00 0.00 0.00 33 1016.7
20260505201305 78 0 0.0 0.0 0.00 0.00 0.00 38 1016.6
20260505195804 79 0 0.0 0.0 0.00 0.00 0.00 37 1016.6
20260505194305 78 0 0.0 0.0 0.00 0.00 0.00 37 1016.6
20260505192804 78 0 0.0 0.0 0.00 0.00 0.00 38 1016.5
20260505191305 80 0 0.0 0.0 0.00 0.00 0.00 36 1016.4
20260505185804 78 0 0.0 0.0 0.00 0.00 0.00 36 1016.3
20260505184304 81 0 0.0 0.0 0.00 0.00 0.00 34 1016.3
20260505182804 79 0 0.0 0.0 0.00 0.00 0.00 36 1016.3
20260505181305 79 0 0.0 0.0 0.00 0.00 0.00 38 1016.1
20260505175804 80 0 0.0 0.0 0.00 0.00 0.00 38 1015.9
20260505174303 79 0 0.0 0.0 0.00 0.00 0.00 37 1015.9
20260505172804 81 0 0.0 0.0 0.00 0.00 0.00 32 1015.7
20260505171304 82 0 0.0 0.0 0.00 0.00 0.00 30 1015.5
20260505165804 79 0 0.0 0.0 0.00 0.00 0.00 32 1015.4
20260505164304 82 0 0.0 0.0 0.00 0.00 0.00 32 1015.5
20260505162804 82 0 0.0 0.0 0.00 0.00 0.00 31 1015.4